Regional Weather Roundup
Issued by NWS

Home | Current Version | Previous Version | Graphics & Text | Print | Product List | Glossary On
Versions: 1 2 3 4 5 6 7 8 9 10 11 12 13 14 15 16 17 18 19 20 21 22 23 24 25 26 27 28 29 30 31 32 33 34 35 36 37 38 39 40 41 42 43 44 45 46 47 48 49 50
000
ASUS45 KTFX 080510
RWRMT
MONTANA REGIONAL WEATHER ROUNDUP
NATIONAL WEATHER SERVICE GREAT FALLS MT
1000 PM MST SUN FEB 07 2016

NOTE: "FAIR" INDICATES FEW OR NO CLOUDS BELOW 12000 FEET WITH NO
SIGNIFICANT WEATHER AND/OR OBSTRUCTIONS TO VISIBILITY.

MTZ001>007-043-080600-
WEST OF THE DIVIDE

CITY           SKY/WX    TMP DP  RH WIND       PRES   REMARKS
KALISPELL      CLOUDY    33  28  81 CALM      30.60F
MISSOULA       CLOUDY    34  26  72 CALM      30.61F
BUTTE          CLOUDY    28  18  66 NW3       30.54R
MULLAN PASS    MOCLDY    28  16  60 SW9       30.56S WCI  19
ANACONDA         N/A     34  16  47 CALM      30.56S
DEER LODGE       N/A     30  21  69 CALM      30.57S
HAMILTON         N/A     36  25  64 S3        30.61S
LIBBY            N/A     34  27  75 CALM      30.63S
PLAINS           N/A     36  27  70 CALM      30.58R
$$

MTZ008-052>055-080600-
SOUTHWEST MONTANA

CITY           SKY/WX    TMP DP  RH WIND       PRES   REMARKS
BOZEMAN        CLOUDY    31  23  72 S5        30.51R
DILLON         CLOUDY    27  20  75 N6        30.54R WCI  20
ENNIS          CLOUDY    34  19  55 S14       30.58R WCI  24
TWIN BRIDGES     N/A     32  20  61 E5        30.46R
$$

MTZ009-010-012-014-046-048-049-054-080600-
EAST SLOPES AND CENTRAL MONTANA

CITY           SKY/WX    TMP DP  RH WIND       PRES   REMARKS
CUT BANK       CLEAR     33  20  58 W9        30.39F WCI  25
GREAT FALLS    CLOUDY    31  16  54 SW10      30.42R WCI  22
MALMSTROM AFB  PTCLDY    29  18  62 SW8       30.43S WCI  22
HELENA         CLOUDY    40  20  44 W14       30.49S
CHOTEAU          N/A     36  21  55 W6        30.41F WCI  31
CONRAD           N/A     24  17  74 S3        30.38F
$$

MTZ011-013-016-021-045-047-050-051-080600-
NORTH CENTRAL MONTANA

CITY           SKY/WX    TMP DP  RH WIND       PRES   REMARKS
HAVRE          PTCLDY    22  16  78 NW3       30.44R
LEWISTOWN      CLOUDY    21  10  62 E6        30.41F WCI  13
N BAR RANCH      N/A     19   9  63 NW5       30.42F
CHINOOK          N/A     21  12  68 CALM      30.46R
$$

MTZ017>020-022>027-061-062-080600-
NORTHEAST MONTANA

CITY           SKY/WX    TMP DP  RH WIND       PRES   REMARKS
GLASGOW        CLEAR     24  15  68 S3        30.40R
JORDAN           N/A     28  17  63 NW10      30.40F WCI  19
SIDNEY         CLEAR     28  18  64 NW15      30.33F WCI  17
WOLF POINT     CLEAR     29  17  61 NW13      30.39S WCI  19
PLENTYWOOD       N/A     27  18  69 NW17G23   30.31R WCI  14
POPLAR           N/A     27  16  63 NW7       30.38R WCI  19
SCOBEY           N/A     22   8  54 W7        30.30S WCI  14
$$

MTZ028>42-056>058-080600-
SOUTHCENTRAL AND SOUTHEAST MONTANA

CITY           SKY/WX    TMP DP  RH WIND       PRES   REMARKS
BAKER          CLOUDY    27  15  61 NW20      30.32S WCI  13
BILLINGS       CLOUDY    34  10  37 SE3       30.44S
LIVINGSTON     CLOUDY    39  14  36 W10       30.45F
MILES CITY     CLOUDY    27  15  61 W10       30.41S WCI  17
FORSYTH          N/A     28  16  59 CALM      30.44F
LAUREL           N/A     33   9  37 CALM      30.37F
ROUNDUP          N/A     27   8  44 CALM      30.31S
$$

REGIONAL REPORTS...DAKOTAS

CITY           SKY/WX    TMP DP  RH WIND       PRES   REMARKS
WILLISTON      CLEAR     28  19  69 NW21G32   30.30S WCI  15
MINOT          FLURRIES  28  16  60 NW28G38   30.16S WCI  13
DICKINSON      CLEAR     26  14  60 NW21      30.23R WCI  12
BEACH            N/A     25  16  68 NW17G24   30.33F WCI  11
CROSBY           N/A     25  21  86 NW16      30.29S WCI  12
TIOGA            N/A     25  19  80 NW22G35   30.28S WCI  10
WATFORD CITY     N/A     27  18  69 NW16G22   30.29S WCI  14
BISMARCK       CLEAR     30  17  58 NW29G41   30.16S WCI  15
GRAND FORKS    LGT SNOW  14   9  80 N26G36    30.05R BLWGSNOWWCI  -6
FARGO          LGT SNOW  15  11  83 N28G36    30.03R VSB 3/4 WCI  -5
BUFFALO SD       N/A     28  14  55 NW28G36   30.22S WCI  13
RAPID CITY     CLEAR     32   9  38 NW32G45   30.28R WCI  17
$$

REGIONAL REPORTS...WYOMING/IDAHO/WASHINGTON

CITY           SKY/WX    TMP DP  RH WIND       PRES   REMARKS
GILLETTE       CLEAR     25  10  53 NW15      30.39R WCI  13
SHERIDAN       CLOUDY    30  15  53 W9        30.44S WCI  22
BUFFALO WY     CLOUDY    26  11  52 N8        30.40R WCI  18
CODY           CLOUDY    30  14  51 CALM      30.42R
YELLOWSTONE LA   N/A     22  13  68 CALM      30.54S
IDAHO FALLS    FOG       22  21  96 N5        30.66R VSB 3/4
SALMON         CLOUDY    12   9  85 E3        30.69R
BOISE          CLEAR     35  32  88 CALM      30.64R
SPOKANE        MOCLDY    36  30  79 NE6       30.61F WCI  31
$$

REGIONAL REPORTS...ALBERTA

CITY           SKY/WX    TMP DP  RH WIND       PRES   REMARKS
EDMONTON       PTCLDY    27  16  63 SW6       30.32F WCI  20
CALGARY        PTCLDY    28  10  47 S6        30.32F WCI  22
LETHBRIDGE     PTCLDY    39  21  48 W18       30.36S WCI  30
MEDICINE HAT   CLEAR     21  18  86 S3        30.42S
WATERTON GATE    N/A     37  19  48 SW30G43     N/A  WCI  25
CARDSTON         N/A     41  21  45 W15G21      N/A
MILK RIVER       N/A     19  14  79 CALM        N/A
$$

REGIONAL REPORTS...SASKATCHEWAN

CITY           SKY/WX    TMP DP  RH WIND       PRES   REMARKS
SWIFT CURRENT  CLEAR     23  16  74 W10       30.35S WCI  12
REGINA         CLEAR     21  18  86 NW12      30.29R WCI   9
SASKATOON      CLEAR     18  14  86 NW6       30.34R WCI   9
CYPRESS HILLS    N/A     21   7  53 NW3         N/A
VAL MARIE        N/A     18  10  73 N2          N/A
ROCKGLEN         N/A     25  14  63 NW16G25     N/A  WCI  12
ASSINIBOIA       N/A     18  12  79 S6          N/A  WCI   9
$$



USA.gov is the U.S. government's official web portal to all federal, state and local government web resources and services.